Regional Weather Roundup
Issued by NWS

Home | Current Version | Previous Version | Graphics & Text | Print | Product List | Glossary On
Versions: 1 2 3 4 5 6 7 8 9 10 11 12 13 14 15 16 17 18 19 20 21 22 23 24 25 26 27 28 29 30 31 32 33 34 35 36 37 38 39 40 41 42 43 44 45 46 47 48 49 50
000
ASUS43 KOAX 220010
RWRNE

WEATHER ROUNDUP FOR NEBRASKA
NATIONAL WEATHER SERVICE OMAHA NE
600 PM CST SUN DEC 21 2014

NOTES: SATELLITE DATA IS BEING USED TO AUGMENT CLOUD COVER ABOVE
       12000 FEET.
       "FAIR" INDICATES FEW OR NO CLOUDS BELOW 12,000 FEET WITH NO
       SIGNIFICANT WEATHER AND/OR OBSTRUCTIONS TO VISIBILITY.

  * THESE STATIONS DO NOT REPORT WEATHER SUCH AS RAIN...SNOW OR FOG.

NEZ001>004-019>022-054>056-220100-
NEBRASKA PANHANDLE

CITY           SKY/WX    TMP DP  RH WIND       PRES   REMARKS
SCOTTSBLUFF    CLOUDY    40  32  73 NW10      29.49R WCI  33
6HR MIN TEMP:  39; 6HR MAX TEMP:  46; 6HR PCP: TRACE;

ALLIANCE       CLOUDY    39  32  76 NW8       29.47R WCI  33
6HR MIN TEMP:  37; 6HR MAX TEMP:  41;

CHADRON        CLOUDY    39  31  72 W9        29.46R WCI  33
6HR MIN TEMP:  39; 6HR MAX TEMP:  46; 6HR PCP: TRACE;

KIMBALL        CLOUDY    41  31  67 NW8       29.50R
SIDNEY         CLOUDY    42  31  64 W10       29.50S
6HR MIN TEMP:  39; 6HR MAX TEMP:  44;

$$

NEZ057>060-069>072-079>082-220100-
SOUTHWEST NEBRASKA

CITY           SKY/WX    TMP DP  RH WIND       PRES   REMARKS
NORTH PLATTE   CLOUDY    37  32  82 SE5       29.51R WCI  33
6HR MIN TEMP:  37; 6HR MAX TEMP:  44;

IMPERIAL       CLOUDY    41  30  65 W3        29.51R
6HR MIN TEMP:  41; 6HR MAX TEMP:  47;

LEXINGTON      CLOUDY    39  36  90 S8        29.54S WCI  33
MCCOOK         CLOUDY    37  33  85 S8        29.54S WCI  31
6HR MIN TEMP:  37; 6HR MAX TEMP:  47;

OGALLALA       CLOUDY    34  31  87 CALM      29.48F
$$

NEZ005>010-023>029-035>040-094-220100-
NORTH CENTRAL NEBRASKA

CITY           SKY/WX    TMP DP  RH WIND       PRES   REMARKS
VALENTINE      CLOUDY    40  31  70 SW12      29.40F WCI  33
6HR MIN TEMP:  38; 6HR MAX TEMP:  45;

AINSWORTH      CLOUDY    39  32  76 S18       29.42S WCI  29
BROKEN BOW     CLOUDY    37  35  92 S8        29.51S FOG     WCI  31
6HR MIN TEMP:  37; 6HR MAX TEMP:  45;

O`NEILL        CLOUDY    37  36  98 S13G21    29.51F FOG     WCI  28
THEDFORD       CLOUDY    40  32  73 S15       29.45F WCI  32
$$

NEZ041-046>049-061>064-073>077-083>087-220100-
SOUTH CENTRAL NEBRASKA

CITY           SKY/WX    TMP DP  RH WIND       PRES   REMARKS
GRAND ISLAND   CLOUDY    40  38  93 S10       29.61F WCI  33
6HR MIN TEMP:  36; 6HR MAX TEMP:  41;

AURORA         CLOUDY    40  40 100 S13       29.62F WCI  32
HASTINGS       CLOUDY    40  37  89 S13       29.60F WCI  32
6HR MIN TEMP:  36; 6HR MAX TEMP:  41;

HEBRON         CLOUDY    41  39  93 S10G17    29.67S FOG
HOLDREGE       CLOUDY    38  36  90 S12       29.55F WCI  31
KEARNEY *      CLOUDY    39  36  87 SE12      29.57F WCI  32
YORK           MOCLDY    39  39 100 S12       29.65F FOG     WCI  32
$$

NEZ011>018-030>034-042>045-220100-
NORTHEAST NEBRASKA

CITY           SKY/WX    TMP DP  RH WIND       PRES   REMARKS
NORFOLK        LGT RAIN  41  39  93 S17G23    29.60F FOG
6HR MIN TEMP:  38; 6HR MAX TEMP:  41; 6HR PCP: TRACE;

ALBION         CLOUDY    40  37  88 S10       29.59F WCI  33
BLAIR          CLOUDY    41  39  93 S17G23    29.68F FOG
COLUMBUS *     CLOUDY    41  36  81 S12       29.66S
FREMONT        CLOUDY    42  40  96 S12       29.68S FOG
TEKAMAH        CLOUDY    42  39  89 S15       29.69S
6HR MIN TEMP:  41; 6HR MAX TEMP:  42;

WAYNE          CLOUDY    40  38  93 S17G24    29.63S FOG     WCI  31
$$

NEZ050>053-065>068-078-088>093-220100-
SOUTHEAST NEBRASKA

CITY           SKY/WX    TMP DP  RH WIND       PRES   REMARKS
LINCOLN        CLOUDY    42  40  92 S16       29.69S
6HR MIN TEMP:  41; 6HR MAX TEMP:  42;

OMAHA EPPLEY   CLOUDY    42  39  89 S17       29.72F
6HR MIN TEMP:  41; 6HR MAX TEMP:  42;

BEATRICE       CLOUDY    42  40  94 S12       29.69F FOG
FALLS CITY     CLOUDY    42  40  92 S10       29.75F FOG
6HR MIN TEMP:  41; 6HR MAX TEMP:  43;

NEBRASKA CITY  CLOUDY    42  42  99 S13       29.72F
PLATTSMOUTH    CLOUDY    40  38  93 SE10G16   29.71F FOG     WCI  34
$$

NEZ044-045-051>053-067-220100-
OMAHA AREA

CITY           SKY/WX    TMP DP  RH WIND       PRES   REMARKS
OMAHA EPPLEY   CLOUDY    42  39  89 S17       29.72F
6HR MIN TEMP:  41; 6HR MAX TEMP:  42;

BLAIR          CLOUDY    41  39  93 S17G23    29.68F FOG
FREMONT        CLOUDY    42  40  96 S12       29.68S FOG
MILLARD        CLOUDY    42  40  92 S12G18    29.70F FOG
OFFUTT AFB     CLOUDY    41  39  94 SE12      29.71F FOG
PLATTSMOUTH    CLOUDY    40  38  93 SE10G16   29.71F FOG     WCI  34
WAHOO          CLOUDY    41  39  90 S13       29.68S FOG
$$


USA.gov is the U.S. government's official web portal to all federal, state and local government web resources and services.